Regional Weather Roundup
Issued by NWS Huntsville, AL

Home | Current Version | Previous Version | Text Only | Print | Product List | Glossary On
Versions: 1 2 3 4 5 6 7 8 9 10 11 12 13 14 15 16 17 18 19 20 21 22 23 24 25 26 27
000
ASUS44 KHUN 130910
RWRHUN

WEATHER ROUNDUP FOR THE TENNESSEE VALLEY
NATIONAL WEATHER SERVICE HUNTSVILLE AL
300 AM CST WED DEC 13 2017

ALZ001>004-131000-
NORTHWEST ALABAMA

CITY           SKY/WX    TMP DP  RH WIND       PRES   REMARKS
COURTLAND HCN    N/A     25 N/A N/A CALM        N/A
RUSSELLVILLE     N/A     23 N/A N/A MISG        N/A
SHOALS AIRPORT CLOUDY    24  19  81 CALM      30.12F
SHOALS TVA RES   N/A     23 N/A N/A MISG        N/A
$$

ALZ005>007-016-131000-
NORTH CENTRAL ALABAMA

CITY           SKY/WX    TMP DP  RH WIND       PRES   REMARKS
CULLMAN AG STN   N/A     25 N/A N/A CALM        N/A
DECATUR AP     PTCLDY    28  16  60 CALM      30.11F
HUNTSVILLE AP  PTCLDY    26  18  71 CALM      30.10S
MERIDIANVILLE  PTCLDY    25  19  80 CALM      30.10S
REDSTONE ARSN  PTCLDY    24  16  71 CALM      30.09S
VINEMONT AP    FAIR      24  17  74 NE3       30.10F
$$

ALZ008>010-131000-
NORTHEAST ALABAMA

CITY           SKY/WX    TMP DP  RH WIND       PRES   REMARKS
ALBERTVILLE    CLOUDY    28  19  69 CALM      30.07S
FORT PAYNE     CLOUDY    28  10  47 CALM      30.06F
SCOTTSBORO AP  CLOUDY    25  18  74 CALM      30.09F
SCOTTSBORO HCN   N/A     23 N/A N/A MISG        N/A
VALLEY HEAD      N/A     23 N/A N/A MISG        N/A
$$

TNZ076-096-097-131000-
SOUTHEASTERN MIDDLE TENNESSEE

CITY           SKY/WX    TMP DP  RH WIND       PRES   REMARKS
TULLAHOMA      CLEAR     21  14  73 CALM      30.05F
WINCHESTER     CLEAR     19  16  86 CALM      30.07F
$$

...SURROUNDING SITES...

CITY           SKY/WX    TMP DP  RH WIND       PRES   REMARKS
ATLANTA        CLEAR     31  13  47 NW12G22   30.03R WCI  22
ANNISTON       CLEAR     28  18  66 W3        30.10F
BIRMINGHAM     PTCLDY    31  17  56 CALM      30.12F
CHATTANOOGA    CLEAR     28   9  44 N5        30.08S WCI  23
CORINTH        FAIR      25  21  86 CALM      30.10F
DALTON         PTCLDY    28  14  54 NW7       30.08F WCI  21
GADSDEN        CLEAR     24  21  88 CALM      30.11F
GOLDEN TRNGL     N/A    N/A N/A N/A MISG        N/A
HALEYVILLE     FAIR      25  21  85 CALM      30.11F
JACKSON TN     CLOUDY    21  18  88 CALM      30.10F
MEMPHIS        CLOUDY    30  23  75 CALM      30.10F
NASHVILLE      CLOUDY    23  14  68 S5        30.08F WCI  17
OXFORD MS      FAIR      25  21  86 CALM      30.13S
ROME           PTCLDY    30  11  45 N3        30.07S
SAVANNAH       CLEAR     23  21  93 CALM      30.10F
SELMER         CLEAR     23  19  86 CALM      30.09F
TUPELO         CLOUDY    27  22  81 CALM      30.11F
TUSCALOOSA     CLEAR     28  24  85 NE3       30.14F
$$

...GULF COAST WEATHER...

CITY           SKY/WX    TMP DP  RH WIND       PRES   REMARKS
GULFPORT       CLEAR     33  31  92 CALM      30.16S
PASCAGOULA     CLEAR     31  28  89 CALM      30.16S
MOBILE         CLEAR     37  30  75 NW5       30.15S WCI  33
GULF SHORES    SUNNY     37  33  84 N3        30.14S
PENSACOLA      PTCLDY    40  33  76 N6        30.13S
DESTIN         CLEAR     46  32  58 N10       30.12S
PANAMA CITY    CLEAR     44  32  62 N8        30.11R
APPALACHICOLA  PTCLDY    41  35  79 N6        30.09R
$$





USA.gov is the U.S. government's official web portal to all federal, state and local government web resources and services.